User: anonymous   Login
Location: Malvern Link
(52.1333°N, 2.3000°W)
Time: 09:48:17
(UTC+00:00)
Language:

FO-29 - Orbit

View from above orbital plane
View from above orbital plane
View from above satellite
View from above satellite

Ground track
Ground track

The orbit data is extracted from the following two-line orbital elements,

1 24278U 96046B   22180.85485141 -.00000024  00000-0  13742-4 0  9995
2 24278  98.5150 202.8396 0349242 251.0801 105.2183 13.53116656277287
Epoch (UTC): 29 June 2022 20:30:59
Eccentricity: 0.0349242
inclination: 98.5150°
perigee height: 801 km
apogee height: 1320 km
right ascension of ascending node: 202.8396°
argument of perigee: 251.0801°
revolutions per day: 13.53116656
mean anomaly at epoch: 105.2183°
orbit number at epoch: 27728

The dashed part of the orbit path shows where the satellite is in the earth's shadow,  

DLR